| time (UTC) | temp F | wind direction | speed MPH | gust MPH | rain 1hr in | rain 24hr in | rain mn in | humidity % | barometer mb |
| 20260507060014 | 50 | 27 | 0.0 | 0.0 | 0.06 | 0.56 | 0.28 | 95 | 1010.4 |
| 20260507054512 | 50 | 27 | 0.0 | 1.0 | 0.17 | 0.56 | 0.28 | 95 | 1010.2 |
| 20260507053010 | 50 | 27 | 0.0 | 2.0 | 0.19 | 0.56 | 0.28 | 94 | 1010.2 |
| 20260507051508 | 50 | 17 | 1.0 | 4.0 | 0.20 | 0.55 | 0.27 | 94 | 1010.4 |
| 20260507050012 | 51 | 42 | 4.0 | 7.0 | 0.20 | 0.50 | 0.22 | 93 | 1010.5 |
| 20260507044504 | 52 | 30 | 0.0 | 3.0 | 0.14 | 0.39 | 0.11 | 93 | 1010.4 |
| 20260507043006 | 52 | 56 | 0.0 | 2.0 | 0.13 | 0.37 | 0.09 | 93 | 1010.1 |
| 20260507041604 | 53 | 343 | 1.0 | 4.0 | 0.11 | 0.35 | 0.07 | 92 | 1009.8 |
| 20260507040055 | 54 | 56 | 0.0 | 3.0 | 0.06 | 0.30 | 0.02 | 90 | 1009.8 |
| 20260507034554 | 55 | 46 | 1.0 | 4.0 | 0.01 | 0.25 | 0.25 | 86 | 1009.6 |
| 20260507033049 | 55 | 49 | 0.0 | 4.0 | 0.00 | 0.24 | 0.24 | 84 | 1009.6 |
| 20260507031548 | 56 | 11 | 1.0 | 8.0 | 0.00 | 0.24 | 0.24 | 85 | 1009.4 |
| 20260507030045 | 56 | 4 | 2.0 | 4.0 | 0.00 | 0.24 | 0.24 | 84 | 1009.0 |
| 20260507024550 | 56 | 355 | 2.0 | 8.0 | 0.00 | 0.24 | 0.24 | 84 | 1009.3 |
| 20260507023052 | 57 | 8 | 1.0 | 4.0 | 0.00 | 0.24 | 0.24 | 83 | 1009.0 |
| 20260507021541 | 57 | 352 | 2.0 | 8.0 | 0.00 | 0.24 | 0.24 | 83 | 1009.1 |
| 20260507020049 | 57 | 300 | 5.0 | 9.0 | 0.00 | 0.24 | 0.24 | 84 | 1009.3 |
| 20260507014537 | 58 | 33 | 2.0 | 6.0 | 0.00 | 0.24 | 0.24 | 86 | 1009.3 |
| 20260507013035 | 58 | 295 | 2.0 | 5.0 | 0.00 | 0.24 | 0.24 | 86 | 1009.3 |
| 20260507011542 | 59 | 278 | 4.0 | 7.0 | 0.00 | 0.24 | 0.24 | 86 | 1009.3 |
| 20260507010035 | 60 | 285 | 2.0 | 5.0 | 0.00 | 0.24 | 0.24 | 90 | 1009.1 |
| 20260507004531 | 61 | 330 | 1.0 | 7.0 | 0.00 | 0.24 | 0.24 | 89 | 1008.8 |
| 20260507003028 | 62 | 340 | 1.0 | 7.0 | 0.00 | 0.24 | 0.24 | 90 | 1008.7 |
| 20260507001600 | 62 | 357 | 3.0 | 10.0 | 0.00 | 0.24 | 0.24 | 91 | 1008.4 |
| 20260507000027 | 62 | 274 | 1.0 | 4.0 | 0.00 | 0.24 | 0.24 | 93 | 1007.7 |
| 20260506234526 | 63 | 275 | 0.0 | 2.0 | 0.00 | 0.24 | 0.24 | 92 | 1007.5 |
| 20260506233026 | 63 | 266 | 0.0 | 2.0 | 0.00 | 0.24 | 0.24 | 91 | 1007.2 |
| 20260506231525 | 63 | 306 | 2.0 | 6.0 | 0.00 | 0.24 | 0.24 | 90 | 1007.4 |
| 20260506230035 | 64 | 268 | 1.0 | 8.0 | 0.00 | 0.24 | 0.24 | 89 | 1007.2 |
| 20260506224524 | 64 | 251 | 4.0 | 9.0 | 0.00 | 0.24 | 0.24 | 88 | 1007.0 |
| 20260506223029 | 65 | 276 | 2.0 | 9.0 | 0.00 | 0.24 | 0.24 | 87 | 1007.0 |
| 20260506221521 | 65 | 231 | 2.0 | 6.0 | 0.00 | 0.24 | 0.24 | 86 | 1006.9 |
| 20260506220021 | 65 | 261 | 5.0 | 10.0 | 0.00 | 0.24 | 0.24 | 86 | 1006.9 |
| 20260506214520 | 65 | 274 | 3.0 | 7.0 | 0.00 | 0.24 | 0.24 | 87 | 1006.5 |
| 20260506213020 | 65 | 294 | 2.0 | 6.0 | 0.00 | 0.24 | 0.24 | 87 | 1006.4 |
| 20260506211522 | 65 | 278 | 1.0 | 7.0 | 0.00 | 0.24 | 0.24 | 87 | 1006.5 |
| 20260506210040 | 65 | 274 | 3.0 | 9.0 | 0.00 | 0.24 | 0.24 | 87 | 1006.2 |
| 20260506204518 | 65 | 278 | 3.0 | 10.0 | 0.00 | 0.24 | 0.24 | 88 | 1006.0 |
| 20260506203018 | 64 | 269 | 2.0 | 10.0 | 0.00 | 0.24 | 0.24 | 88 | 1006.1 |
| 20260506201520 | 64 | 245 | 2.0 | 6.0 | 0.00 | 0.24 | 0.24 | 90 | 1006.3 |
| 20260506200014 | 63 | 285 | 3.0 | 7.0 | 0.00 | 0.24 | 0.24 | 90 | 1006.2 |
| 20260506194516 | 63 | 265 | 2.0 | 8.0 | 0.00 | 0.24 | 0.24 | 90 | 1006.4 |
| 20260506193022 | 63 | 272 | 5.0 | 14.0 | 0.00 | 0.24 | 0.24 | 89 | 1006.4 |
| 20260506191512 | 64 | 295 | 2.0 | 12.0 | 0.00 | 0.24 | 0.24 | 89 | 1006.4 |
| 20260506190013 | 63 | 263 | 4.0 | 13.0 | 0.00 | 0.24 | 0.24 | 89 | 1006.4 |
| 20260506184512 | 63 | 238 | 4.0 | 10.0 | 0.00 | 0.24 | 0.24 | 88 | 1006.6 |
| 20260506183009 | 63 | 271 | 4.0 | 10.0 | 0.00 | 0.24 | 0.24 | 89 | 1006.6 |
| 20260506181511 | 62 | 273 | 4.0 | 11.0 | 0.00 | 0.24 | 0.24 | 92 | 1006.7 |
| 20260506180010 | 61 | 277 | 3.0 | 8.0 | 0.00 | 0.24 | 0.24 | 94 | 1006.9 |
| 20260506174508 | 60 | 210 | 0.0 | 6.0 | 0.00 | 0.24 | 0.24 | 94 | 1006.9 |
| 20260506173007 | 60 | 269 | 3.0 | 7.0 | 0.00 | 0.24 | 0.24 | 94 | 1006.9 |
| 20260506171505 | 60 | 252 | 5.0 | 10.0 | 0.00 | 0.24 | 0.24 | 94 | 1007.0 |
| 20260506170004 | 60 | 278 | 5.0 | 12.0 | 0.00 | 0.24 | 0.24 | 94 | 1007.0 |
| 20260506164509 | 60 | 284 | 2.0 | 9.0 | 0.01 | 0.24 | 0.24 | 95 | 1006.9 |
| 20260506163006 | 60 | 274 | 4.0 | 7.0 | 0.01 | 0.24 | 0.24 | 95 | 1006.7 |
| 20260506161600 | 60 | 262 | 4.0 | 11.0 | 0.02 | 0.24 | 0.24 | 95 | 1007.0 |
| 20260506160118 | 60 | 276 | 4.0 | 11.0 | 0.06 | 0.24 | 0.24 | 96 | 1007.1 |
| 20260506154557 | 60 | 287 | 1.0 | 7.0 | 0.08 | 0.23 | 0.23 | 97 | 1006.9 |
| 20260506153055 | 59 | 290 | 4.0 | 7.0 | 0.10 | 0.23 | 0.23 | 96 | 1006.6 |
| 20260506151555 | 59 | 268 | 1.0 | 8.0 | 0.10 | 0.22 | 0.22 | 96 | 1006.9 |
| 20260506144550 | 59 | 252 | 4.0 | 14.0 | 0.07 | 0.15 | 0.15 | 95 | 1007.8 |
| 20260506143049 | 59 | 248 | 4.0 | 14.0 | 0.07 | 0.13 | 0.13 | 94 | 1007.8 |
| 20260506141547 | 59 | 272 | 5.0 | 11.0 | 0.08 | 0.12 | 0.12 | 94 | 1007.6 |
| 20260506140045 | 59 | 261 | 5.0 | 9.0 | 0.08 | 0.11 | 0.11 | 93 | 1007.3 |
| 20260506134543 | 59 | 274 | 3.0 | 8.0 | 0.05 | 0.08 | 0.08 | 92 | 1007.3 |
| 20260506133052 | 60 | 270 | 2.0 | 6.0 | 0.05 | 0.06 | 0.06 | 91 | 1007.4 |
| 20260506131538 | 60 | 233 | 2.0 | 9.0 | 0.03 | 0.04 | 0.04 | 89 | 1007.5 |
| 20260506130037 | 61 | 259 | 3.0 | 7.0 | 0.03 | 0.03 | 0.03 | 88 | 1007.4 |
| 20260506124535 | 61 | 259 | 3.0 | 8.0 | 0.02 | 0.02 | 0.02 | 86 | 1007.6 |
| 20260506123034 | 61 | 278 | 2.0 | 10.0 | 0.01 | 0.01 | 0.01 | 84 | 1007.8 |
| 20260506121531 | 62 | 242 | 4.0 | 10.0 | 0.01 | 0.01 | 0.01 | 83 | 1007.9 |
| 20260506120048 | 62 | 285 | 4.0 | 13.0 | 0.00 | 0.00 | 0.00 | 82 | 1007.9 |
| 20260506114526 | 62 | 255 | 5.0 | 10.0 | 0.00 | 0.00 | 0.00 | 80 | 1007.7 |
| 20260506113023 | 63 | 278 | 6.0 | 14.0 | 0.00 | 0.00 | 0.00 | 77 | 1007.3 |
| 20260506111520 | 63 | 279 | 3.0 | 7.0 | 0.00 | 0.00 | 0.00 | 76 | 1007.3 |
| 20260506110019 | 64 | 287 | 5.0 | 16.0 | 0.00 | 0.00 | 0.00 | 75 | 1007.2 |
| 20260506104527 | 64 | 255 | 2.0 | 8.0 | 0.00 | 0.00 | 0.00 | 74 | 1006.9 |
| 20260506103034 | 64 | 230 | 4.0 | 10.0 | 0.00 | 0.00 | 0.00 | 72 | 1006.9 |
| 20260506101513 | 64 | 276 | 2.0 | 6.0 | 0.00 | 0.00 | 0.00 | 71 | 1006.8 |
| 20260506100011 | 65 | 269 | 3.0 | 10.0 | 0.00 | 0.00 | 0.00 | 70 | 1006.8 |
| 20260506094512 | 65 | 293 | 1.0 | 8.0 | 0.00 | 0.00 | 0.00 | 69 | 1006.7 |
| 20260506093017 | 66 | 249 | 4.0 | 7.0 | 0.00 | 0.00 | 0.00 | 68 | 1006.6 |
| 20260506091506 | 66 | 275 | 3.0 | 9.0 | 0.00 | 0.00 | 0.00 | 67 | 1006.8 |
| 20260506090004 | 66 | 278 | 2.0 | 10.0 | 0.00 | 0.00 | 0.00 | 67 | 1007.0 |
| 20260506084503 | 66 | 275 | 2.0 | 8.0 | 0.00 | 0.00 | 0.00 | 66 | 1007.0 |
| 20260506083101 | 67 | 288 | 4.0 | 13.0 | 0.00 | 0.00 | 0.00 | 65 | 1007.0 |
| 20260506081601 | 67 | 229 | 4.0 | 9.0 | 0.00 | 0.00 | 0.00 | 65 | 1007.1 |
| 20260506073052 | 68 | 251 | 5.0 | 12.0 | 0.00 | 0.00 | 0.00 | 61 | 1007.2 |
| 20260506071550 | 68 | 256 | 3.0 | 11.0 | 0.00 | 0.00 | 0.00 | 61 | 1007.3 |
| 20260506061541 | 69 | 258 | 5.0 | 13.0 | 0.00 | 0.00 | 0.00 | 58 | 1008.0 |